Location: Beuvrequen
(50.8014°N, 1.6652°E)
Time: 13:45:25
(UTC+00:00)

Lacrosse 4 Rocket - Pass Details

Date: 05 June 2022
Orbit: 541 x 611 km, 68.0° (Epoch: 30 June)

Event Time Altitude Azimuth Distance (km) Brightness Sun altitude
Exits shadow 00:29:33 - 127° (SE) 1,959 3.9 -16.2°
Reaches altitude 10° 00:30:09 10° 119° (ESE) 1,878 3.8 -16.2°
Maximum altitude 00:31:13 11° 105° (ESE) 1,820 3.9 -16.2°
Drops below altitude 10° 00:32:17 10° 90° (E) 1,871 4.1 -16.1°
Sets 00:36:09 0° 53° (NE) 2,756 5.7 -16.0°
